ELECTRON KICK STAGE R/B, 63306

Orbit data source: Space-Track

ELECTRON KICK STAGE R/B, 63306 is space debris in SSO originally from a launch on Tue, 18 Mar 2025 UTC launched from the Rocket Lab Launch Complex (RLLC). Debris objects in space refer to the collection of defunct objects orbiting the Earth. Examples of debris include non-operational satellites, rocket bodies, and fragments generated from explosions, collisions, or faulty payload assembly.

Loading next visibility...
Identifier
63306, 2025-056G
Orbit
SSO
Country
Flag of USUS
Related business
Manufacturer
Rocket Lab
Mission
Spacecraft
Bus & Motor
KICK STAGE, CURIE
Mass
~50 kg wet, ~50 kg dry
Launch date (UTC)
2025-03-18 (6 months ago)
Launch vehicle
Unknown
Launch site
Rocket Lab Launch Complex (RLLC)
Object type
Payload
Rocket body
Debris
Shape & HBR
Trunc Cone, 0.7 m
Radar Cross Section
0.760 m², Large (>1 m²)

Expand to show TLE details & history
Last TLE update: 23 hours ago

TLE from 23 hours ago
0 ELECTRON KICK STAGE R/B
1 63306U 25056G   25257.42936970  .00003119  00000-0  35284-3 0  9996
2 63306  97.9916  25.2435 0044291 166.4683 193.7731 14.86494416 26776
Epoch: 2025-09-14T10:18Z
TLE epoch observation values (Epoch: 2025-09-14T10:18:17.542Z)
Latitude
-0°
Longitude
-122.97809°
Altitude
641.997 km
Speed
7.521 km/s
True Right ascension
01h 40m 58s
True Declination
0° 00' 00"
Sunlit
Object was in full shadow at epoch
Visualization orbit readout
Latitude
Unknown
Longitude
Unknown
Altitude
Unknown
Speed
Unknown
Apparent Right ascension
Unknown
Apparent Declination
Unknown
Sunlit
N/A
Visualization observer readout
Local Sidereal Time
02:16:41
Azimuth
Unknown
Elevation
Unknown
Doppler factor
Unknown
Orbital elements
Apogee altitude
636.868 km
Perigee altitude
575.002 km
Semi-major axis
6,984.072 km
Eccentricity
0.00443
Inclination
97.9916°
RAAN
25.2435°
Arg. of periapsis
166.4683°
True anomaly
193.65291°
Mean anomaly
193.7731°
Eccentric anomaly
193.71294°
Mean motion
3.71861 °/min
Orbital period
96.81 mins
BSTAR
0.00035284
Loading maneuver chart data...
Computing Atmospheric mass density...
Loading historical data...
Loading historical data...
Loading historical data...
Loading historical data...
Loading historical data...
Loading historical data...
Loading historical data...

Documentation

Showing up to 5 results
|